SCO26CD EGAA-EGPF

Flight info

Callsign SCO26CD
Flight time 0h 27m
Altitude 17000
Route BLACA
Aircraft A320/M-SDE3FGHIRWY/LB1

Departure

Time 2026-05-04 12:15
Airport Belfast International Airport (EGAA)

Arrival

Time 2026-05-04 12:42
Airport Glasgow Airport (EGPF)
Time Latitude Longitude Altitude Speed Heading
2026-05-04 11:44 54.66193 -6.21203 272 ft 0 kts 65°
2026-05-04 12:03 54.66194 -6.21201 272 ft 0 kts 65°
2026-05-04 12:06 54.66194 -6.21203 272 ft 2 kts 65°
2026-05-04 12:07 54.66186 -6.21229 274 ft 2 kts 65°
2026-05-04 12:07 54.66179 -6.21255 277 ft 2 kts 65°
2026-05-04 12:07 54.66177 -6.21262 277 ft 0 kts 65°
2026-05-04 12:07 54.66178 -6.21260 277 ft 0 kts 65°
2026-05-04 12:09 54.66172 -6.21252 272 ft 4 kts 135°
2026-05-04 12:09 54.66106 -6.21242 272 ft 11 kts 164°
2026-05-04 12:10 54.66039 -6.21212 272 ft 9 kts 195°
2026-05-04 12:10 54.66006 -6.21307 272 ft 13 kts 245°
2026-05-04 12:10 54.65948 -6.21523 275 ft 22 kts 244°
2026-05-04 12:10 54.65886 -6.21750 272 ft 21 kts 245°
2026-05-04 12:11 54.65827 -6.21972 272 ft 19 kts 245°
2026-05-04 12:11 54.65775 -6.22196 272 ft 21 kts 257°
2026-05-04 12:11 54.65755 -6.22464 272 ft 24 kts 264°
2026-05-04 12:11 54.65740 -6.22728 272 ft 20 kts 261°
2026-05-04 12:12 54.65638 -6.22778 274 ft 20 kts 160°
2026-05-04 12:12 54.65447 -6.22669 272 ft 34 kts 162°
2026-05-04 12:12 54.65212 -6.22538 272 ft 37 kts 162°
2026-05-04 12:12 54.64958 -6.22396 272 ft 40 kts 161°
2026-05-04 12:13 54.64687 -6.22243 272 ft 42 kts 162°
2026-05-04 12:14 54.66268 -6.23129 817 ft 153 kts 341°
2026-05-04 12:15 54.67299 -6.23681 1627 ft 157 kts 342°
2026-05-04 12:15 54.68347 -6.24179 2518 ft 155 kts 343°
2026-05-04 12:15 54.69454 -6.24274 3085 ft 176 kts 17°
2026-05-04 12:15 54.70422 -6.22786 3477 ft 206 kts 62°
2026-05-04 12:16 54.70949 -6.20322 3880 ft 233 kts 71°
2026-05-04 12:16 54.71431 -6.17470 4432 ft 258 kts 73°
2026-05-04 12:16 54.71745 -6.15506 4864 ft 270 kts 74°
2026-05-04 12:16 54.72268 -6.12220 5817 ft 278 kts 73°
2026-05-04 12:17 54.72784 -6.09028 6826 ft 281 kts 73°
2026-05-04 12:17 54.73331 -6.05706 7793 ft 285 kts 72°
2026-05-04 12:17 54.73889 -6.02383 8770 ft 289 kts 72°
2026-05-04 12:17 54.74450 -5.99074 9762 ft 293 kts 72°
2026-05-04 12:18 54.75037 -5.95630 10451 ft 308 kts 72°
2026-05-04 12:18 54.75670 -5.91946 10901 ft 328 kts 72°
2026-05-04 12:18 54.76315 -5.88186 11669 ft 335 kts 72°
2026-05-04 12:18 54.76988 -5.84227 12521 ft 340 kts 72°
2026-05-04 12:19 54.77653 -5.80268 13382 ft 344 kts 72°
2026-05-04 12:19 54.78326 -5.76242 14191 ft 349 kts 72°
2026-05-04 12:19 54.79004 -5.72197 14929 ft 353 kts 72°
2026-05-04 12:19 54.79694 -5.68089 15681 ft 356 kts 72°
2026-05-04 12:20 54.80388 -5.63959 16424 ft 360 kts 72°
2026-05-04 12:20 54.81096 -5.59752 16930 ft 371 kts 72°
2026-05-04 12:20 54.81839 -5.55325 17084 ft 391 kts 72°
2026-05-04 12:20 54.82616 -5.50664 17109 ft 413 kts 73°
2026-05-04 12:21 54.83432 -5.45753 17106 ft 432 kts 73°
2026-05-04 12:21 54.84276 -5.40653 17103 ft 446 kts 73°
2026-05-04 12:21 54.85134 -5.35458 17103 ft 450 kts 73°
2026-05-04 12:21 54.85993 -5.30226 17103 ft 451 kts 73°
2026-05-04 12:22 54.86845 -5.25007 17098 ft 451 kts 73°
2026-05-04 12:22 54.87923 -5.19906 17090 ft 449 kts 60°
2026-05-04 12:22 54.89777 -5.15579 17092 ft 446 kts 43°
2026-05-04 12:22 54.92270 -5.12454 17095 ft 444 kts 26°
2026-05-04 12:23 54.95036 -5.10035 17091 ft 444 kts 25°
2026-05-04 12:23 54.97803 -5.07657 17089 ft 444 kts 25°
2026-05-04 12:23 55.00580 -5.05279 17088 ft 444 kts 24°
2026-05-04 12:23 55.03359 -5.02894 17084 ft 444 kts 25°
2026-05-04 12:24 55.06126 -5.00498 17083 ft 444 kts 25°
2026-05-04 12:24 55.08885 -4.98094 17079 ft 444 kts 25°
2026-05-04 12:24 55.11656 -4.95671 17066 ft 444 kts 25°
2026-05-04 12:24 55.14383 -4.93280 16277 ft 438 kts 25°
2026-05-04 12:25 55.17101 -4.90896 15513 ft 435 kts 25°
2026-05-04 12:25 55.19810 -4.88522 15233 ft 434 kts 25°
2026-05-04 12:25 55.22504 -4.86162 14893 ft 432 kts 25°
2026-05-04 12:25 55.25108 -4.83554 14517 ft 432 kts 34°
2026-05-04 12:26 55.27277 -4.79933 14184 ft 432 kts 46°
2026-05-04 12:26 55.29244 -4.76057 13854 ft 431 kts 47°
2026-05-04 12:26 55.31225 -4.72128 13484 ft 429 kts 47°
2026-05-04 12:26 55.33189 -4.68217 13112 ft 426 kts 47°
2026-05-04 12:27 55.35147 -4.64309 12744 ft 424 kts 47°
2026-05-04 12:27 55.37092 -4.60425 12470 ft 422 kts 47°
2026-05-04 12:27 55.39033 -4.56552 12357 ft 422 kts 47°
2026-05-04 12:27 55.40969 -4.52691 12306 ft 422 kts 47°
2026-05-04 12:28 55.42906 -4.48820 12277 ft 421 kts 47°
2026-05-04 12:28 55.44841 -4.44937 12261 ft 421 kts 47°
2026-05-04 12:28 55.46781 -4.41043 12256 ft 423 kts 47°
2026-05-04 12:28 55.48726 -4.37130 12296 ft 424 kts 47°
2026-05-04 12:29 55.50664 -4.33228 12385 ft 425 kts 47°
2026-05-04 12:29 55.52622 -4.29285 12562 ft 426 kts 47°
2026-05-04 12:29 55.54573 -4.25353 12863 ft 427 kts 47°
2026-05-04 12:29 55.56538 -4.21382 13330 ft 429 kts 47°
2026-05-04 12:30 55.58507 -4.17395 13563 ft 433 kts 47°
2026-05-04 12:30 55.60474 -4.13402 13495 ft 424 kts 47°
2026-05-04 12:30 55.62369 -4.09542 13152 ft 408 kts 47°
2026-05-04 12:30 55.64226 -4.05748 12818 ft 395 kts 47°
2026-05-04 12:31 55.65996 -4.02125 12495 ft 391 kts 47°
2026-05-04 12:31 55.67745 -3.98540 12192 ft 390 kts 47°
2026-05-04 12:31 55.69507 -3.94933 11890 ft 390 kts 47°
2026-05-04 12:31 55.71281 -3.91291 11580 ft 391 kts 47°
2026-05-04 12:32 55.73035 -3.87653 11292 ft 382 kts 47°
2026-05-04 12:32 55.76776 -3.81821 10693 ft 338 kts 18°
2026-05-04 12:32 55.79013 -3.81019 10292 ft 318 kts 355°
2026-05-04 12:33 55.81131 -3.81444 9830 ft 299 kts 347°
2026-05-04 12:33 55.83141 -3.82031 9322 ft 286 kts 347°
2026-05-04 12:33 55.85050 -3.82606 8826 ft 274 kts 347°
2026-05-04 12:33 55.86877 -3.83161 8341 ft 265 kts 346°
2026-05-04 12:34 55.88669 -3.83693 7855 ft 259 kts 346°
2026-05-04 12:34 55.90376 -3.84589 7388 ft 254 kts 327°
2026-05-04 12:34 55.91830 -3.86295 6969 ft 253 kts 321°
2026-05-04 12:34 55.93243 -3.88128 6558 ft 252 kts 321°
2026-05-04 12:35 55.94652 -3.90005 6114 ft 252 kts 320°
2026-05-04 12:35 55.96050 -3.91877 5673 ft 251 kts 320°
2026-05-04 12:35 55.97425 -3.93705 5215 ft 241 kts 321°
2026-05-04 12:35 55.98750 -3.95467 4822 ft 236 kts 320°
2026-05-04 12:36 55.99986 -3.97314 4555 ft 226 kts 306°
2026-05-04 12:36 56.00578 -3.99803 4432 ft 213 kts 282°
2026-05-04 12:36 56.00879 -4.02389 4434 ft 218 kts 282°
2026-05-04 12:36 56.01202 -4.05057 4434 ft 216 kts 282°
2026-05-04 12:37 56.01519 -4.07670 4439 ft 214 kts 282°
2026-05-04 12:37 56.01832 -4.10250 4443 ft 217 kts 282°
2026-05-04 12:37 56.02018 -4.13038 4442 ft 233 kts 267°
2026-05-04 12:37 56.01586 -4.15883 4418 ft 240 kts 245°
2026-05-04 12:38 56.00557 -4.18331 3843 ft 252 kts 229°
2026-05-04 12:38 55.99348 -4.20529 3529 ft 247 kts 227°
2026-05-04 12:38 55.98135 -4.22767 3101 ft 249 kts 230°
2026-05-04 12:38 55.96977 -4.24947 2717 ft 240 kts 230°
2026-05-04 12:39 55.95866 -4.27040 2391 ft 226 kts 230°
2026-05-04 12:39 55.94877 -4.28899 2106 ft 202 kts 230°
2026-05-04 12:39 55.93953 -4.30637 1860 ft 182 kts 231°
2026-05-04 12:39 55.93134 -4.32176 1605 ft 162 kts 231°
2026-05-04 12:40 55.92382 -4.33588 1385 ft 148 kts 231°
2026-05-04 12:40 55.91675 -4.34919 1175 ft 145 kts 232°
2026-05-04 12:40 55.90991 -4.36188 966 ft 143 kts 229°
2026-05-04 12:40 55.90288 -4.37445 774 ft 142 kts 230°
2026-05-04 12:41 55.89631 -4.38749 589 ft 141 kts 235°
2026-05-04 12:41 55.88955 -4.40010 406 ft 141 kts 230°
2026-05-04 12:41 55.88284 -4.41298 222 ft 142 kts 231°
2026-05-04 12:41 55.87606 -4.42557 34 ft 138 kts 231°
2026-05-04 12:42 55.87022 -4.43657 29 ft 102 kts 226°
2026-05-04 12:42 55.86733 -4.44192 29 ft 28 kts 226°
2026-05-04 12:42 55.86631 -4.44254 29 ft 16 kts 141°
2026-05-04 12:42 55.86620 -4.44083 29 ft 13 kts 88°
2026-05-04 12:43 55.86635 -4.43942 29 ft 11 kts 51°
2026-05-04 12:43 55.86687 -4.43843 29 ft 11 kts 46°
2026-05-04 12:43 55.86736 -4.43723 29 ft 12 kts 71°
2026-05-04 12:43 55.86715 -4.43617 29 ft 10 kts 155°
2026-05-04 12:44 55.86651 -4.43583 29 ft 9 kts 164°
2026-05-04 12:44 55.86604 -4.43537 29 ft 7 kts 105°
2026-05-04 12:44 55.86612 -4.43462 29 ft 6 kts 73°
2026-05-04 12:44 55.86617 -4.43433 29 ft 1 kts 74°
2026-05-04 12:45 55.86618 -4.43426 29 ft 0 kts 74°